DKH1330 VVNB-ZSPD

Flight info

Callsign DKH1330
Flight time 2h 55m
Altitude 35100
Route NAKHA3A NAKHA R474 WUY R343 SASAN SAS82A
Aircraft A321/M-SDE3FGHIRWY/LB1

Departure

Time 2026-05-05 12:59
Airport Noi Bai International Airport (VVNB)

Arrival

Time 2026-05-05 15:54
Airport Shanghai Pudong International Airport (ZSPD)
Time Latitude Longitude Altitude Speed Heading
2026-05-05 12:23 21.21959 105.79082 48 ft 0 kts 198°
2026-05-05 12:49 21.21963 105.79082 48 ft 2 kts 198°
2026-05-05 12:50 21.21977 105.79088 48 ft 2 kts 198°
2026-05-05 12:50 21.21992 105.79092 48 ft 2 kts 198°
2026-05-05 12:50 21.22006 105.79098 48 ft 2 kts 198°
2026-05-05 12:50 21.22020 105.79102 48 ft 2 kts 198°
2026-05-05 12:51 21.22035 105.79108 48 ft 2 kts 211°
2026-05-05 12:51 21.22046 105.79118 48 ft 2 kts 233°
2026-05-05 12:51 21.22053 105.79133 48 ft 2 kts 254°
2026-05-05 12:51 21.22055 105.79148 48 ft 2 kts 275°
2026-05-05 12:52 21.22054 105.79158 48 ft 1 kts 287°
2026-05-05 12:52 21.22052 105.79163 48 ft 0 kts 287°
2026-05-05 12:54 21.22057 105.79145 48 ft 3 kts 287°
2026-05-05 12:54 21.22068 105.79108 48 ft 6 kts 287°
2026-05-05 12:54 21.22083 105.79054 48 ft 8 kts 287°
2026-05-05 12:55 21.22102 105.78988 48 ft 9 kts 287°
2026-05-05 12:55 21.22123 105.78914 48 ft 10 kts 287°
2026-05-05 12:55 21.22146 105.78835 48 ft 11 kts 287°
2026-05-05 12:55 21.22170 105.78752 48 ft 11 kts 287°
2026-05-05 12:56 21.22187 105.78695 48 ft 8 kts 288°
2026-05-05 12:56 21.22205 105.78636 48 ft 6 kts 288°
2026-05-05 12:56 21.22223 105.78591 48 ft 7 kts 310°
2026-05-05 12:56 21.22271 105.78582 48 ft 7 kts 11°
2026-05-05 12:57 21.22325 105.78599 48 ft 8 kts 18°
2026-05-05 12:57 21.22384 105.78619 48 ft 9 kts 18°
2026-05-05 12:57 21.22435 105.78637 48 ft 5 kts 19°
2026-05-05 12:57 21.22459 105.78664 48 ft 5 kts 86°
2026-05-05 12:58 21.22453 105.78692 48 ft 0 kts 109°
2026-05-05 12:58 21.22450 105.78702 48 ft 12 kts 108°
2026-05-05 12:58 21.22348 105.79053 50 ft 83 kts 107°
2026-05-05 12:58 21.22109 105.79875 51 ft 143 kts 107°
2026-05-05 12:59 21.21778 105.81042 204 ft 176 kts 108°
2026-05-05 12:59 21.21432 105.82246 968 ft 164 kts 108°
2026-05-05 12:59 21.21114 105.83379 1652 ft 159 kts 108°
2026-05-05 13:00 21.20491 105.85676 2328 ft 170 kts 108°
2026-05-05 13:00 21.20138 105.86939 2560 ft 182 kts 108°
2026-05-05 13:01 21.18936 105.91234 3307 ft 221 kts 108°
2026-05-05 13:01 21.18473 105.92887 3506 ft 241 kts 108°
2026-05-05 13:01 21.17976 105.94657 3815 ft 257 kts 108°
2026-05-05 13:01 21.17467 105.96546 4218 ft 270 kts 103°
2026-05-05 13:02 21.17526 105.98580 4728 ft 280 kts 72°
2026-05-05 13:02 21.18528 106.00352 5296 ft 284 kts 43°
2026-05-05 13:02 21.20147 106.01531 5926 ft 285 kts 27°
2026-05-05 13:02 21.21898 106.02575 6552 ft 288 kts 27°
2026-05-05 13:03 21.23656 106.03630 7165 ft 291 kts 27°
2026-05-05 13:03 21.25414 106.04699 7756 ft 294 kts 27°
2026-05-05 13:03 21.27201 106.05796 8329 ft 297 kts 27°
2026-05-05 13:03 21.28990 106.06903 8925 ft 299 kts 28°
2026-05-05 13:04 21.30792 106.08022 9497 ft 302 kts 28°
2026-05-05 13:04 21.32634 106.09169 10055 ft 305 kts 28°
2026-05-05 13:04 21.33872 106.09941 10376 ft 308 kts 27°
2026-05-05 13:04 21.35648 106.11047 10608 ft 321 kts 28°
2026-05-05 13:05 21.37605 106.12266 10860 ft 335 kts 28°
2026-05-05 13:05 21.39682 106.13561 11114 ft 347 kts 28°
2026-05-05 13:05 21.41632 106.14780 11508 ft 351 kts 28°
2026-05-05 13:05 21.43193 106.15756 11897 ft 353 kts 28°
2026-05-05 13:06 21.44875 106.16811 12312 ft 354 kts 28°
2026-05-05 13:06 21.46619 106.17902 12714 ft 356 kts 28°
2026-05-05 13:06 21.48695 106.19201 13186 ft 358 kts 28°
2026-05-05 13:06 21.50836 106.20542 13643 ft 360 kts 28°
2026-05-05 13:07 21.52611 106.21654 14025 ft 362 kts 28°
2026-05-05 13:07 21.54827 106.23042 14483 ft 365 kts 28°
2026-05-05 13:07 21.57003 106.24406 14912 ft 367 kts 28°
2026-05-05 13:07 21.59222 106.25796 15350 ft 370 kts 28°
2026-05-05 13:08 21.61455 106.27196 15790 ft 372 kts 28°
2026-05-05 13:08 21.63717 106.28616 16213 ft 374 kts 28°
2026-05-05 13:08 21.65978 106.30035 16628 ft 376 kts 28°
2026-05-05 13:08 21.68235 106.31451 17030 ft 379 kts 27°
2026-05-05 13:09 21.70500 106.32872 17420 ft 381 kts 27°
2026-05-05 13:09 21.72819 106.34329 17804 ft 383 kts 27°
2026-05-05 13:09 21.75129 106.35782 18170 ft 385 kts 27°
2026-05-05 13:09 21.77434 106.37230 18528 ft 388 kts 27°
2026-05-05 13:10 21.79758 106.38693 18884 ft 390 kts 27°
2026-05-05 13:10 21.82121 106.40179 19230 ft 392 kts 27°
2026-05-05 13:10 21.84480 106.41663 19568 ft 395 kts 27°
2026-05-05 13:10 21.86850 106.43156 19894 ft 398 kts 27°
2026-05-05 13:11 21.89266 106.44679 20223 ft 400 kts 27°
2026-05-05 13:11 21.91657 106.46185 20556 ft 402 kts 27°
2026-05-05 13:11 21.94091 106.47723 20881 ft 405 kts 27°
2026-05-05 13:11 21.96470 106.49357 21198 ft 408 kts 31°
2026-05-05 13:12 21.98783 106.51173 21513 ft 412 kts 34°
2026-05-05 13:12 22.01043 106.53117 21820 ft 415 kts 36°
2026-05-05 13:12 22.03278 106.55074 22129 ft 418 kts 36°
2026-05-05 13:12 22.05555 106.57072 22436 ft 420 kts 36°
2026-05-05 13:13 22.07814 106.59049 22745 ft 422 kts 36°
2026-05-05 13:13 22.10102 106.61048 23067 ft 423 kts 36°
2026-05-05 13:13 22.12375 106.63034 23396 ft 424 kts 35°
2026-05-05 13:13 22.14678 106.65044 23717 ft 426 kts 36°
2026-05-05 13:14 22.16989 106.67104 24024 ft 428 kts 38°
2026-05-05 13:14 22.19180 106.69276 24321 ft 431 kts 41°
2026-05-05 13:14 22.21323 106.71537 24616 ft 433 kts 41°
2026-05-05 13:14 22.23475 106.73835 24902 ft 435 kts 41°
2026-05-05 13:15 22.25637 106.76147 25186 ft 437 kts 41°
2026-05-05 13:15 22.27727 106.78379 25464 ft 438 kts 41°
2026-05-05 13:15 22.29904 106.80699 25739 ft 439 kts 41°
2026-05-05 13:15 22.32066 106.83005 26010 ft 441 kts 41°
2026-05-05 13:16 22.34140 106.85490 26241 ft 447 kts 51°
2026-05-05 13:16 22.35683 106.88375 26498 ft 453 kts 64°
2026-05-05 13:16 22.36651 106.91665 26756 ft 458 kts 75°
2026-05-05 13:16 22.37262 106.94991 27032 ft 459 kts 77°
2026-05-05 13:17 22.37837 106.98411 27270 ft 461 kts 77°
2026-05-05 13:17 22.38407 107.01794 27508 ft 463 kts 77°
2026-05-05 13:17 22.39002 107.05236 27729 ft 465 kts 77°
2026-05-05 13:17 22.39604 107.08648 27964 ft 467 kts 77°
2026-05-05 13:18 22.40226 107.12125 28195 ft 468 kts 76°
2026-05-05 13:18 22.40845 107.15565 28419 ft 470 kts 76°
2026-05-05 13:18 22.41466 107.19016 28635 ft 472 kts 77°
2026-05-05 13:18 22.42092 107.22508 28862 ft 473 kts 76°
2026-05-05 13:19 22.42714 107.25984 29074 ft 475 kts 76°
2026-05-05 13:19 22.43342 107.29467 29301 ft 477 kts 76°
2026-05-05 13:19 22.43974 107.32969 29513 ft 478 kts 76°
2026-05-05 13:19 22.44617 107.36527 29731 ft 480 kts 76°
2026-05-05 13:20 22.45254 107.40054 29943 ft 481 kts 76°
2026-05-05 13:20 22.45894 107.43599 30153 ft 483 kts 76°
2026-05-05 13:20 22.46533 107.47143 30409 ft 483 kts 76°
2026-05-05 13:20 22.47178 107.50731 30730 ft 482 kts 76°
2026-05-05 13:21 22.47809 107.54253 31051 ft 481 kts 76°
2026-05-05 13:21 22.48447 107.57809 31348 ft 480 kts 76°
2026-05-05 13:21 22.49081 107.61353 31635 ft 479 kts 76°
2026-05-05 13:21 22.49704 107.64832 31916 ft 479 kts 76°
2026-05-05 13:22 22.50340 107.68393 32214 ft 478 kts 76°
2026-05-05 13:22 22.50966 107.71905 32494 ft 477 kts 76°
2026-05-05 13:22 22.51595 107.75440 32756 ft 477 kts 76°
2026-05-05 13:22 22.52216 107.78920 33032 ft 477 kts 76°
2026-05-05 13:23 22.52842 107.82444 33315 ft 477 kts 76°
2026-05-05 13:23 22.53467 107.85960 33574 ft 477 kts 76°
2026-05-05 13:23 22.54087 107.89452 33792 ft 478 kts 76°
2026-05-05 13:23 22.54713 107.92984 33990 ft 479 kts 76°
2026-05-05 13:24 22.55337 107.96514 34198 ft 480 kts 76°
2026-05-05 13:24 22.55966 108.00067 34416 ft 480 kts 76°
2026-05-05 13:24 22.56593 108.03632 34620 ft 481 kts 76°
2026-05-05 13:24 22.57333 108.07129 34817 ft 479 kts 70°
2026-05-05 13:25 22.58441 108.10480 34987 ft 476 kts 62°
2026-05-05 13:25 22.59937 108.13678 34987 ft 472 kts 54°
2026-05-05 13:25 22.63874 108.19218 34991 ft 463 kts 40°
2026-05-05 13:26 22.68747 108.23659 34993 ft 457 kts 32°
2026-05-05 13:26 22.73795 108.27836 34990 ft 457 kts 32°
2026-05-05 13:27 22.78846 108.32043 34989 ft 458 kts 32°
2026-05-05 13:27 22.83892 108.36276 34988 ft 457 kts 32°
2026-05-05 13:28 22.88922 108.40509 34995 ft 458 kts 32°
2026-05-05 13:28 22.93970 108.44763 35001 ft 458 kts 32°
2026-05-05 13:29 22.99001 108.49007 35005 ft 458 kts 32°
2026-05-05 13:29 23.04024 108.53249 35007 ft 458 kts 32°
2026-05-05 13:30 23.09032 108.57484 35009 ft 458 kts 32°
2026-05-05 13:30 23.14101 108.61774 35008 ft 458 kts 32°
2026-05-05 13:31 23.19108 108.66015 35000 ft 458 kts 32°
2026-05-05 13:31 23.24152 108.70291 34998 ft 459 kts 32°
2026-05-05 13:32 23.29184 108.74554 34999 ft 459 kts 32°
2026-05-05 13:32 23.34248 108.78844 35003 ft 459 kts 32°
2026-05-05 13:33 23.39269 108.83103 34999 ft 459 kts 32°
2026-05-05 13:33 23.44283 108.87362 35005 ft 458 kts 32°
2026-05-05 13:34 23.49301 108.91626 35005 ft 459 kts 32°
2026-05-05 13:34 23.54355 108.95926 35005 ft 459 kts 32°
2026-05-05 13:35 23.59390 109.00214 35006 ft 459 kts 32°
2026-05-05 13:35 23.64392 109.04479 35008 ft 459 kts 32°
2026-05-05 13:36 23.69406 109.08759 35008 ft 459 kts 32°
2026-05-05 13:36 23.74439 109.13058 35011 ft 459 kts 32°
2026-05-05 13:37 23.79631 109.17105 35011 ft 456 kts 28°
2026-05-05 13:37 23.84902 109.20951 35011 ft 456 kts 27°
2026-05-05 13:38 23.90190 109.24807 35014 ft 456 kts 27°
2026-05-05 13:38 23.95432 109.28641 35018 ft 455 kts 27°
2026-05-05 13:39 24.00692 109.32493 35021 ft 455 kts 27°
2026-05-05 13:39 24.05973 109.36366 35018 ft 455 kts 27°
2026-05-05 13:40 24.11228 109.40225 35019 ft 455 kts 27°
2026-05-05 13:40 24.16479 109.44086 35022 ft 455 kts 27°
2026-05-05 13:41 24.21718 109.47938 35025 ft 455 kts 27°
2026-05-05 13:41 24.26997 109.51826 35032 ft 455 kts 27°
2026-05-05 13:42 24.32252 109.55700 35029 ft 454 kts 27°
2026-05-05 13:42 24.37478 109.59555 35024 ft 454 kts 27°
2026-05-05 13:43 24.42716 109.63432 35020 ft 454 kts 27°
2026-05-05 13:43 24.47940 109.67308 35017 ft 454 kts 27°
2026-05-05 13:44 24.53193 109.71210 35018 ft 454 kts 27°
2026-05-05 13:44 24.58415 109.75092 35024 ft 453 kts 27°
2026-05-05 13:45 24.63647 109.78983 35031 ft 454 kts 27°
2026-05-05 13:45 24.68851 109.82859 35040 ft 453 kts 27°
2026-05-05 13:46 24.74089 109.86736 35053 ft 452 kts 27°
2026-05-05 13:46 24.79323 109.90612 35055 ft 452 kts 27°
2026-05-05 13:47 24.84528 109.94469 35057 ft 452 kts 27°
2026-05-05 13:47 24.89722 109.98325 35051 ft 450 kts 27°
2026-05-05 13:48 24.94903 110.02177 35036 ft 451 kts 27°
2026-05-05 13:48 25.00121 110.06058 35018 ft 450 kts 26°
2026-05-05 13:49 25.05314 110.09924 35014 ft 451 kts 26°
2026-05-05 13:49 25.10493 110.13785 35011 ft 450 kts 27°
2026-05-05 13:50 25.15677 110.17654 35017 ft 451 kts 26°
2026-05-05 13:50 25.20887 110.21545 35016 ft 449 kts 26°
2026-05-05 13:51 25.26063 110.25389 35016 ft 450 kts 26°
2026-05-05 13:51 25.31268 110.29254 35027 ft 449 kts 26°
2026-05-05 13:52 25.36418 110.33083 35035 ft 449 kts 26°
2026-05-05 13:52 25.41611 110.36949 35047 ft 449 kts 26°
2026-05-05 13:53 25.46815 110.40798 35068 ft 449 kts 26°
2026-05-05 13:53 25.52018 110.44623 35085 ft 449 kts 26°
2026-05-05 13:54 25.57196 110.48423 35091 ft 447 kts 25°
2026-05-05 13:54 25.62439 110.52058 35091 ft 445 kts 24°
2026-05-05 13:55 25.67723 110.55694 35075 ft 445 kts 24°
2026-05-05 13:55 25.72984 110.59340 35060 ft 445 kts 24°
2026-05-05 13:56 25.78232 110.62946 35051 ft 444 kts 24°
2026-05-05 13:56 25.83492 110.66493 35060 ft 443 kts 24°
2026-05-05 13:57 25.88773 110.70061 35091 ft 443 kts 24°
2026-05-05 13:57 25.94012 110.73608 35121 ft 442 kts 24°
2026-05-05 13:58 25.99258 110.77166 35149 ft 442 kts 24°
2026-05-05 13:58 26.04530 110.80746 35144 ft 443 kts 24°
2026-05-05 13:59 26.12382 110.86070 35094 ft 441 kts 24°
2026-05-05 14:00 26.20288 110.91428 35060 ft 441 kts 24°
2026-05-05 14:00 26.25493 110.94961 35048 ft 441 kts 24°
2026-05-05 14:01 26.30789 110.98562 35045 ft 440 kts 24°
2026-05-05 14:01 26.36003 111.02111 35048 ft 440 kts 24°
2026-05-05 14:02 26.41209 111.05656 35054 ft 440 kts 24°
2026-05-05 14:02 26.46433 111.09219 35056 ft 438 kts 24°
2026-05-05 14:03 26.51637 111.12769 35060 ft 439 kts 24°
2026-05-05 14:03 26.56829 111.16318 35058 ft 439 kts 24°
2026-05-05 14:04 26.62004 111.19980 35051 ft 440 kts 26°
2026-05-05 14:04 26.67106 111.23741 35052 ft 439 kts 26°
2026-05-05 14:05 26.72216 111.27499 35047 ft 438 kts 26°
2026-05-05 14:05 26.77291 111.31225 35039 ft 437 kts 26°
2026-05-05 14:06 26.82392 111.34969 35032 ft 438 kts 26°
2026-05-05 14:06 26.87498 111.38718 35028 ft 438 kts 26°
2026-05-05 14:07 26.92586 111.42390 35020 ft 435 kts 24°
2026-05-05 14:07 26.97811 111.45843 35015 ft 434 kts 23°
2026-05-05 14:08 27.03030 111.49266 35016 ft 434 kts 23°
2026-05-05 14:08 27.08219 111.52682 35012 ft 433 kts 23°
2026-05-05 14:09 27.13444 111.56123 35018 ft 433 kts 23°
2026-05-05 14:09 27.18632 111.59563 35019 ft 433 kts 24°
2026-05-05 14:10 27.23753 111.63098 35024 ft 433 kts 24°
2026-05-05 14:10 27.28861 111.66642 35019 ft 432 kts 25°
2026-05-05 14:11 27.33977 111.70184 35037 ft 431 kts 25°
2026-05-05 14:11 27.39107 111.73737 35065 ft 431 kts 25°
2026-05-05 14:12 27.44208 111.77271 35092 ft 430 kts 25°
2026-05-05 14:12 27.49288 111.80797 35094 ft 430 kts 25°
2026-05-05 14:13 27.54395 111.84345 35090 ft 429 kts 25°
2026-05-05 14:13 27.59483 111.87883 35061 ft 429 kts 25°
2026-05-05 14:14 27.64534 111.91400 35026 ft 428 kts 25°
2026-05-05 14:14 27.69605 111.94931 35014 ft 428 kts 25°
2026-05-05 14:15 27.74666 111.98466 35000 ft 427 kts 25°
2026-05-05 14:15 27.79680 112.01968 35005 ft 425 kts 25°
2026-05-05 14:16 27.84706 112.05476 35000 ft 424 kts 25°
2026-05-05 14:16 27.89755 112.09005 35003 ft 424 kts 25°
2026-05-05 14:17 27.94767 112.12512 35002 ft 424 kts 25°
2026-05-05 14:17 27.99774 112.15991 34998 ft 423 kts 25°
2026-05-05 14:18 28.04795 112.19444 34994 ft 423 kts 25°
2026-05-05 14:18 28.09703 112.23167 34990 ft 426 kts 28°
2026-05-05 14:19 28.14543 112.27087 34990 ft 426 kts 28°
2026-05-05 14:19 28.19374 112.30990 34978 ft 426 kts 28°
2026-05-05 14:20 28.24195 112.34808 34978 ft 424 kts 28°
2026-05-05 14:20 28.29044 112.38654 34975 ft 424 kts 28°
2026-05-05 14:21 28.33857 112.42474 34975 ft 423 kts 28°
2026-05-05 14:21 28.38693 112.46317 34975 ft 423 kts 28°
2026-05-05 14:22 28.43496 112.50146 34967 ft 421 kts 28°
2026-05-05 14:22 28.48285 112.53964 34961 ft 421 kts 28°
2026-05-05 14:23 28.53081 112.57793 34968 ft 420 kts 28°
2026-05-05 14:23 28.57848 112.61602 34969 ft 421 kts 28°
2026-05-05 14:24 28.62633 112.65430 34968 ft 419 kts 28°
2026-05-05 14:24 28.67385 112.69235 34967 ft 420 kts 28°
2026-05-05 14:25 28.72144 112.73050 34962 ft 419 kts 28°
2026-05-05 14:25 28.76920 112.76885 34967 ft 419 kts 28°
2026-05-05 14:26 28.81657 112.80692 34965 ft 417 kts 28°
2026-05-05 14:26 28.86401 112.84509 34966 ft 415 kts 28°
2026-05-05 14:27 28.91092 112.88289 34973 ft 415 kts 28°
2026-05-05 14:27 28.95817 112.92097 34971 ft 415 kts 28°
2026-05-05 14:28 29.00525 112.95900 34969 ft 415 kts 28°
2026-05-05 14:28 29.05240 112.99711 34970 ft 414 kts 28°
2026-05-05 14:29 29.09931 113.03506 34966 ft 413 kts 28°
2026-05-05 14:29 29.14606 113.07292 34962 ft 414 kts 28°
2026-05-05 14:30 29.19302 113.11104 34957 ft 413 kts 28°
2026-05-05 14:30 29.23978 113.14897 34957 ft 413 kts 28°
2026-05-05 14:31 29.28664 113.18707 34965 ft 413 kts 28°
2026-05-05 14:31 29.33351 113.22520 34966 ft 412 kts 28°
2026-05-05 14:32 29.38027 113.26320 34967 ft 412 kts 28°
2026-05-05 14:32 29.42683 113.30087 34960 ft 410 kts 28°
2026-05-05 14:33 29.47332 113.33855 34958 ft 410 kts 28°
2026-05-05 14:33 29.52025 113.37659 34957 ft 411 kts 28°
2026-05-05 14:34 29.56651 113.41420 34951 ft 410 kts 28°
2026-05-05 14:34 29.61320 113.45216 34957 ft 410 kts 28°
2026-05-05 14:35 29.65974 113.49004 34953 ft 408 kts 28°
2026-05-05 14:35 29.70596 113.52772 34956 ft 410 kts 28°
2026-05-05 14:36 29.75232 113.56555 34954 ft 408 kts 27°
2026-05-05 14:36 29.79845 113.60320 34950 ft 408 kts 28°
2026-05-05 14:37 29.84483 113.64117 34951 ft 407 kts 28°
2026-05-05 14:37 29.89115 113.67834 34954 ft 406 kts 26°
2026-05-05 14:38 29.93961 113.71073 34948 ft 400 kts 21°
2026-05-05 14:38 29.98924 113.73970 34949 ft 399 kts 20°
2026-05-05 14:39 30.03896 113.76852 34949 ft 400 kts 20°
2026-05-05 14:39 30.08883 113.79747 34948 ft 400 kts 20°
2026-05-05 14:40 30.13829 113.82622 34953 ft 400 kts 20°
2026-05-05 14:40 30.18799 113.85512 34948 ft 398 kts 20°
2026-05-05 14:41 30.23770 113.88409 34952 ft 399 kts 20°
2026-05-05 14:41 30.28719 113.91293 34948 ft 400 kts 20°
2026-05-05 14:42 30.33669 113.94181 34955 ft 398 kts 21°
2026-05-05 14:42 30.38596 113.97058 34957 ft 397 kts 21°
2026-05-05 14:43 30.43536 113.99951 34961 ft 397 kts 20°
2026-05-05 14:43 30.48472 114.02840 34963 ft 396 kts 21°
2026-05-05 14:44 30.53394 114.05725 34962 ft 396 kts 21°
2026-05-05 14:44 30.58340 114.08633 34959 ft 397 kts 20°
2026-05-05 14:45 30.63230 114.11520 34952 ft 397 kts 21°
2026-05-05 14:45 30.68167 114.14432 34955 ft 396 kts 21°
2026-05-05 14:46 30.72895 114.17742 34957 ft 404 kts 30°
2026-05-05 14:46 30.77072 114.22263 34959 ft 417 kts 41°
2026-05-05 14:47 30.80408 114.27899 34958 ft 429 kts 53°
2026-05-05 14:47 30.82784 114.34340 34960 ft 436 kts 60°
2026-05-05 14:48 30.84893 114.40896 34961 ft 438 kts 60°
2026-05-05 14:48 30.87019 114.47517 34963 ft 436 kts 60°
2026-05-05 14:49 30.89153 114.54092 34963 ft 436 kts 60°
2026-05-05 14:49 30.91304 114.60714 34965 ft 437 kts 60°
2026-05-05 14:50 30.93438 114.67304 34967 ft 436 kts 60°
2026-05-05 14:50 30.95586 114.73950 34967 ft 436 kts 61°
2026-05-05 14:51 30.97725 114.80580 34968 ft 436 kts 60°
2026-05-05 14:51 30.99851 114.87174 34971 ft 436 kts 60°
2026-05-05 14:52 31.01931 114.93653 34973 ft 437 kts 60°
2026-05-05 14:52 31.04054 115.00283 34930 ft 437 kts 61°
2026-05-05 14:53 31.06176 115.06923 34971 ft 438 kts 61°
2026-05-05 14:53 31.08295 115.13566 34990 ft 437 kts 60°
2026-05-05 14:54 31.10402 115.20180 35019 ft 437 kts 60°
2026-05-05 14:54 31.12505 115.26829 35022 ft 436 kts 61°
2026-05-05 14:55 31.14621 115.33435 35032 ft 435 kts 60°
2026-05-05 14:55 31.16771 115.40056 35038 ft 436 kts 60°
2026-05-05 14:56 31.18904 115.46647 35052 ft 435 kts 60°
2026-05-05 14:56 31.21037 115.53252 35065 ft 434 kts 60°
2026-05-05 14:57 31.23155 115.59825 35082 ft 435 kts 60°
2026-05-05 14:57 31.25278 115.66428 35104 ft 434 kts 60°
2026-05-05 14:58 31.27411 115.73074 35114 ft 433 kts 61°
2026-05-05 14:58 31.29507 115.79626 35125 ft 433 kts 60°
2026-05-05 14:59 31.31608 115.86214 35121 ft 432 kts 60°
2026-05-05 14:59 31.33730 115.92794 35100 ft 431 kts 60°
2026-05-05 15:00 31.35511 115.98249 35086 ft 431 kts 60°
2026-05-05 15:00 31.38004 116.05890 35065 ft 431 kts 60°
2026-05-05 15:01 31.40134 116.12450 35058 ft 432 kts 60°
2026-05-05 15:01 31.42257 116.19000 35054 ft 432 kts 60°
2026-05-05 15:02 31.44382 116.25555 35050 ft 433 kts 60°
2026-05-05 15:02 31.46513 116.32149 35040 ft 433 kts 60°
2026-05-05 15:03 31.48631 116.38730 35035 ft 434 kts 60°
2026-05-05 15:03 31.50757 116.45334 35026 ft 434 kts 60°
2026-05-05 15:04 31.52868 116.51915 35025 ft 434 kts 60°
2026-05-05 15:04 31.54996 116.58559 35021 ft 434 kts 60°
2026-05-05 15:05 31.58159 116.68454 35016 ft 437 kts 61°
2026-05-05 15:06 31.60289 116.75141 35010 ft 436 kts 61°
2026-05-05 15:06 31.62416 116.81836 35006 ft 436 kts 61°
2026-05-05 15:07 31.64523 116.88468 35009 ft 437 kts 61°
2026-05-05 15:07 31.66621 116.95096 35010 ft 434 kts 61°
2026-05-05 15:08 31.68719 117.01739 35004 ft 435 kts 61°
2026-05-05 15:08 31.70791 117.08421 35010 ft 435 kts 62°
2026-05-05 15:09 31.72847 117.15083 35008 ft 436 kts 62°
2026-05-05 15:09 31.74860 117.21822 35004 ft 440 kts 65°
2026-05-05 15:10 31.76256 117.28896 35009 ft 448 kts 73°
2026-05-05 15:10 31.76831 117.36234 35003 ft 456 kts 81°
2026-05-05 15:11 31.76571 117.43704 35007 ft 461 kts 87°
2026-05-05 15:11 31.76038 117.51176 35008 ft 462 kts 87°
2026-05-05 15:12 31.75501 117.58722 35009 ft 463 kts 87°
2026-05-05 15:12 31.74971 117.66219 35002 ft 462 kts 88°
2026-05-05 15:13 31.74440 117.73756 35000 ft 463 kts 88°
2026-05-05 15:13 31.73910 117.81226 35003 ft 462 kts 88°
2026-05-05 15:14 31.73370 117.88747 35011 ft 463 kts 88°
2026-05-05 15:14 31.72827 117.96256 34997 ft 462 kts 88°
2026-05-05 15:15 31.72285 118.03738 35006 ft 461 kts 89°
2026-05-05 15:15 31.71734 118.11234 34992 ft 462 kts 89°
2026-05-05 15:16 31.71207 118.18716 34990 ft 463 kts 88°
2026-05-05 15:16 31.70686 118.26205 34998 ft 463 kts 88°
2026-05-05 15:17 31.70156 118.33750 35016 ft 464 kts 89°
2026-05-05 15:17 31.69622 118.41292 35007 ft 463 kts 89°
2026-05-05 15:18 31.69088 118.48779 35009 ft 463 kts 89°
2026-05-05 15:18 31.68548 118.56285 35000 ft 464 kts 89°
2026-05-05 15:19 31.67999 118.63835 35028 ft 464 kts 89°
2026-05-05 15:19 31.67448 118.71367 35025 ft 464 kts 89°
2026-05-05 15:20 31.66893 118.78915 35007 ft 465 kts 89°
2026-05-05 15:20 31.66338 118.86403 35024 ft 465 kts 90°
2026-05-05 15:21 31.65772 118.93975 35025 ft 465 kts 90°
2026-05-05 15:21 31.65203 119.01517 35030 ft 465 kts 90°
2026-05-05 15:22 31.64723 119.09052 35032 ft 465 kts 88°
2026-05-05 15:22 31.64544 119.12839 34826 ft 464 kts 88°
2026-05-05 15:22 31.64370 119.16575 34615 ft 462 kts 88°
2026-05-05 15:22 31.64205 119.20293 34403 ft 458 kts 87°
2026-05-05 15:23 31.64044 119.24000 34173 ft 455 kts 87°
2026-05-05 15:23 31.63880 119.27715 33963 ft 454 kts 87°
2026-05-05 15:23 31.63717 119.31370 33754 ft 452 kts 87°
2026-05-05 15:23 31.63551 119.35059 33526 ft 452 kts 87°
2026-05-05 15:24 31.63386 119.38714 33283 ft 452 kts 87°
2026-05-05 15:24 31.63215 119.42372 33037 ft 453 kts 88°
2026-05-05 15:24 31.63039 119.46074 32783 ft 452 kts 88°
2026-05-05 15:24 31.62864 119.49710 32546 ft 453 kts 88°
2026-05-05 15:25 31.62686 119.53426 32294 ft 452 kts 88°
2026-05-05 15:25 31.62512 119.57079 32059 ft 452 kts 88°
2026-05-05 15:25 31.62335 119.60746 31816 ft 452 kts 88°
2026-05-05 15:25 31.62156 119.64397 31575 ft 452 kts 88°
2026-05-05 15:26 31.61974 119.68098 31330 ft 451 kts 88°
2026-05-05 15:26 31.61805 119.71720 31091 ft 451 kts 88°
2026-05-05 15:26 31.61636 119.75417 30850 ft 450 kts 89°
2026-05-05 15:26 31.61468 119.79071 30605 ft 450 kts 89°
2026-05-05 15:27 31.61298 119.82739 30365 ft 449 kts 89°
2026-05-05 15:27 31.61128 119.86386 30125 ft 449 kts 89°
2026-05-05 15:27 31.60957 119.90006 29887 ft 448 kts 88°
2026-05-05 15:27 31.60786 119.93665 29641 ft 446 kts 88°
2026-05-05 15:28 31.60616 119.97239 29393 ft 444 kts 89°
2026-05-05 15:28 31.60445 120.00892 29108 ft 444 kts 89°
2026-05-05 15:28 31.60274 120.04474 28806 ft 442 kts 89°
2026-05-05 15:28 31.60102 120.08051 28479 ft 441 kts 89°
2026-05-05 15:29 31.59931 120.11626 28069 ft 437 kts 89°
2026-05-05 15:29 31.59762 120.15114 27627 ft 434 kts 89°
2026-05-05 15:29 31.59590 120.18646 27156 ft 431 kts 89°
2026-05-05 15:29 31.59420 120.22124 26675 ft 427 kts 89°
2026-05-05 15:30 31.59248 120.25587 26196 ft 424 kts 89°
2026-05-05 15:30 31.59037 120.28981 25709 ft 421 kts 92°
2026-05-05 15:30 31.58571 120.32374 25223 ft 420 kts 98°
2026-05-05 15:30 31.57830 120.35685 24746 ft 419 kts 104°
2026-05-05 15:31 31.56917 120.38876 24281 ft 416 kts 106°
2026-05-05 15:31 31.55960 120.42092 23797 ft 413 kts 106°
2026-05-05 15:31 31.55024 120.45222 23335 ft 409 kts 107°
2026-05-05 15:31 31.54087 120.48365 22864 ft 406 kts 107°
2026-05-05 15:32 31.53160 120.51484 22380 ft 403 kts 107°
2026-05-05 15:32 31.52247 120.54566 21913 ft 400 kts 107°
2026-05-05 15:32 31.51341 120.57626 21446 ft 398 kts 107°
2026-05-05 15:32 31.50437 120.60676 20973 ft 396 kts 107°
2026-05-05 15:33 31.49541 120.63702 20508 ft 394 kts 107°
2026-05-05 15:33 31.48647 120.66720 20045 ft 392 kts 108°
2026-05-05 15:33 31.47762 120.69704 19585 ft 390 kts 108°
2026-05-05 15:33 31.46865 120.72719 19112 ft 389 kts 108°
2026-05-05 15:34 31.45987 120.75669 18664 ft 387 kts 109°
2026-05-05 15:34 31.45091 120.78676 18199 ft 385 kts 109°
2026-05-05 15:34 31.44203 120.81589 17740 ft 384 kts 110°
2026-05-05 15:34 31.43285 120.84534 17288 ft 382 kts 110°
2026-05-05 15:35 31.42372 120.87455 16838 ft 380 kts 110°
2026-05-05 15:35 31.41473 120.90336 16386 ft 379 kts 110°
2026-05-05 15:35 31.40652 120.93242 15913 ft 377 kts 102°
2026-05-05 15:35 31.40515 120.96262 15497 ft 372 kts 82°
2026-05-05 15:36 31.41160 120.99204 15499 ft 370 kts 70°
2026-05-05 15:36 31.42020 121.01996 15521 ft 370 kts 68°
2026-05-05 15:36 31.42919 121.04853 15547 ft 370 kts 68°
2026-05-05 15:36 31.43783 121.07658 15567 ft 371 kts 69°
2026-05-05 15:37 31.44525 121.10548 15588 ft 372 kts 77°
2026-05-05 15:37 31.44758 121.13583 15611 ft 374 kts 90°
2026-05-05 15:37 31.44527 121.16610 15639 ft 375 kts 96°
2026-05-05 15:37 31.44171 121.19646 15605 ft 376 kts 97°
2026-05-05 15:38 31.43810 121.22683 15108 ft 377 kts 97°
2026-05-05 15:38 31.43464 121.25711 14613 ft 376 kts 97°
2026-05-05 15:38 31.43130 121.28720 14149 ft 373 kts 97°
2026-05-05 15:38 31.42805 121.31705 13705 ft 370 kts 97°
2026-05-05 15:39 31.42482 121.34669 13262 ft 366 kts 97°
2026-05-05 15:39 31.42161 121.37611 12824 ft 363 kts 97°
2026-05-05 15:39 31.41846 121.40498 12371 ft 359 kts 97°
2026-05-05 15:39 31.41364 121.43336 11909 ft 357 kts 111°
2026-05-05 15:40 31.39987 121.45722 11453 ft 350 kts 139°
2026-05-05 15:40 31.37905 121.47085 11110 ft 339 kts 162°
2026-05-05 15:40 31.35675 121.47849 10833 ft 330 kts 165°
2026-05-05 15:40 31.33524 121.48587 10630 ft 319 kts 163°
2026-05-05 15:41 31.31431 121.49341 10428 ft 308 kts 163°
2026-05-05 15:41 31.29404 121.50096 10248 ft 298 kts 162°
2026-05-05 15:41 31.27463 121.50832 10045 ft 288 kts 162°
2026-05-05 15:41 31.25604 121.51553 9863 ft 279 kts 159°
2026-05-05 15:42 31.23995 121.52781 9662 ft 273 kts 129°
2026-05-05 15:42 31.23270 121.54733 9474 ft 265 kts 95°
2026-05-05 15:42 31.23488 121.56825 9262 ft 257 kts 71°
2026-05-05 15:42 31.24087 121.58784 8956 ft 255 kts 70°
2026-05-05 15:43 31.24914 121.60581 8585 ft 255 kts 46°
2026-05-05 15:43 31.26403 121.61668 8248 ft 254 kts 15°
2026-05-05 15:43 31.28150 121.61754 7932 ft 252 kts 346°
2026-05-05 15:43 31.29824 121.61124 7631 ft 250 kts 340°
2026-05-05 15:44 31.31442 121.60462 7459 ft 242 kts 341°
2026-05-05 15:44 31.33006 121.59838 7261 ft 236 kts 341°
2026-05-05 15:44 31.34550 121.59235 7008 ft 232 kts 342°
2026-05-05 15:44 31.36090 121.58643 6761 ft 229 kts 342°
2026-05-05 15:45 31.37586 121.58086 6517 ft 225 kts 347°
2026-05-05 15:45 31.39098 121.58132 6318 ft 213 kts 21°
2026-05-05 15:45 31.40226 121.59119 6101 ft 200 kts 53°
2026-05-05 15:45 31.40764 121.60580 5832 ft 195 kts 77°
2026-05-05 15:46 31.41038 121.62118 5523 ft 194 kts 80°
2026-05-05 15:46 31.41299 121.63667 5220 ft 193 kts 80°
2026-05-05 15:46 31.41568 121.65212 4969 ft 192 kts 81°
2026-05-05 15:46 31.41707 121.66742 4713 ft 189 kts 99°
2026-05-05 15:47 31.41154 121.68083 4477 ft 185 kts 136°
2026-05-05 15:47 31.40077 121.68913 4262 ft 184 kts 155°
2026-05-05 15:47 31.38901 121.69460 4049 ft 183 kts 160°
2026-05-05 15:47 31.37689 121.69939 3849 ft 182 kts 162°
2026-05-05 15:48 31.36473 121.70400 3651 ft 182 kts 162°
2026-05-05 15:48 31.35271 121.70854 3454 ft 181 kts 162°
2026-05-05 15:48 31.34066 121.71309 3299 ft 180 kts 162°
2026-05-05 15:48 31.32866 121.71763 3172 ft 179 kts 162°
2026-05-05 15:49 31.31689 121.72208 3048 ft 178 kts 162°
2026-05-05 15:49 31.30520 121.72651 2994 ft 177 kts 162°
2026-05-05 15:49 31.29337 121.73099 2833 ft 176 kts 162°
2026-05-05 15:49 31.28181 121.73536 2592 ft 170 kts 162°
2026-05-05 15:50 31.27095 121.73946 2367 ft 156 kts 162°
2026-05-05 15:50 31.26113 121.74319 2180 ft 143 kts 163°
2026-05-05 15:50 31.25219 121.74657 1964 ft 127 kts 163°
2026-05-05 15:50 31.24377 121.74976 1803 ft 124 kts 164°
2026-05-05 15:51 31.23565 121.75283 1652 ft 123 kts 163°
2026-05-05 15:51 31.22740 121.75594 1501 ft 123 kts 163°
2026-05-05 15:51 31.21925 121.75900 1337 ft 124 kts 163°
2026-05-05 15:51 31.21101 121.76221 1168 ft 124 kts 162°
2026-05-05 15:52 31.20275 121.76537 996 ft 125 kts 163°
2026-05-05 15:52 31.19441 121.76842 823 ft 126 kts 163°
2026-05-05 15:52 31.18598 121.77153 662 ft 127 kts 162°
2026-05-05 15:52 31.17760 121.77475 507 ft 128 kts 162°
2026-05-05 15:53 31.16898 121.77801 339 ft 129 kts 162°
2026-05-05 15:53 31.16045 121.78125 173 ft 130 kts 163°
2026-05-05 15:53 31.15185 121.78449 41 ft 130 kts 162°
2026-05-05 15:53 31.14381 121.78750 22 ft 102 kts 162°
2026-05-05 15:54 31.13859 121.78948 22 ft 56 kts 161°
2026-05-05 15:54 31.13628 121.79044 22 ft 19 kts 153°
2026-05-05 15:54 31.13523 121.79136 22 ft 18 kts 134°
2026-05-05 15:54 31.13440 121.79231 22 ft 15 kts 136°
2026-05-05 15:55 31.13364 121.79318 22 ft 15 kts 134°
2026-05-05 15:55 31.13345 121.79339 22 ft 2 kts 137°
2026-05-05 15:55 31.13330 121.79355 21 ft 3 kts 137°
2026-05-05 15:55 31.13312 121.79381 22 ft 4 kts 112°
2026-05-05 15:56 31.13315 121.79421 22 ft 5 kts 72°
2026-05-05 15:56 31.13327 121.79466 22 ft 6 kts 72°
2026-05-05 15:56 31.13344 121.79527 21 ft 8 kts 72°
2026-05-05 15:56 31.13365 121.79604 22 ft 11 kts 71°
2026-05-05 15:57 31.13391 121.79695 22 ft 12 kts 72°
2026-05-05 15:57 31.13417 121.79793 22 ft 12 kts 73°
2026-05-05 15:57 31.13445 121.79894 22 ft 13 kts 71°
2026-05-05 15:57 31.13474 121.79997 21 ft 11 kts 71°
2026-05-05 15:58 31.13497 121.80074 22 ft 5 kts 71°
2026-05-05 15:58 31.13514 121.80116 22 ft 6 kts 45°
2026-05-05 15:58 31.13558 121.80134 21 ft 7 kts 22°
2026-05-05 15:58 31.13588 121.80183 22 ft 6 kts 70°
2026-05-05 15:59 31.13597 121.80217 21 ft 3 kts 72°
2026-05-05 15:59 31.13602 121.80231 21 ft 1 kts 72°
2026-05-05 15:59 31.13602 121.80235 22 ft 0 kts 73°